Simultaneous Nadir Overpasses (SNOs) Predictions

Prediction of SNOs between GOES-17 and LANDSAT-8 Satellite Orbit:

Table of predicted SNOs for the next 14.0 days since TLE Epoch: 9/23/2023
Index Date Time (GOES-17) GOES-17 Lat,Lon LANDSAT-8 Lat,Lon Distance(km) Time Diff (sec)
1 09/23/2023 16:54:29 0.01,-104.70 -0.89,-100.31 498.34 80
2 09/24/2023 05:15:53 -0.01,-104.69 -0.19,-105.51 93.43 80
3 09/26/2023 05:01:03 0.00,-104.69 0.45,-102.56 241.88 80
4 09/26/2023 17:22:19 -0.00,-104.69 0.64,-107.72 343.76 80
5 09/28/2023 17:10:08 -0.00,-104.70 0.04,-104.76 8.12 80
6 09/30/2023 17:00:38 -0.01,-104.70 -0.64,-101.81 329.16 80
7 10/01/2023 05:22:02 0.01,-104.70 -0.48,-107.00 261.39 80
8 10/03/2023 05:07:11 0.01,-104.70 0.17,-104.04 75.16 80
9 10/05/2023 04:54:59 0.02,-104.70 0.78,-101.08 411.79 80
10 10/05/2023 17:16:15 -0.02,-104.70 0.28,-106.24 174.33 80
